{"data":{"norad_id":40977,"epoch":"2026-05-25T00:17:37.422816Z","epoch_age_seconds":73204,"freshness":"FRESH","line1":"1 40977U 15058P   26145.01223869  .00003913  00000+0  33473-3 0  9993","line2":"2 40977  64.7739 348.1781 0118415  67.4007 293.9582 14.93817106111293","mean_motion":14.93817106,"eccentricity":0.0118415,"inclination_deg":64.7739,"raan_deg":348.1781,"arg_perigee_deg":67.4007,"mean_anomaly_deg":293.9582,"bstar":0.00033473,"rev_number":11129,"period_min":96.397343035915,"perigee_km":503.5803836968,"apogee_km":668.51314782128,"semimajor_km":6964.183765759,"source":"CELESTRAK","updated_at":"2026-05-25T13:38:25.527771Z"}}